Location: Famechon
(49.7599°N, 2.0615°E)
Time: 21:32:07
(UTC+00:00)

Cosmos 1741 Rocket - Pass Details

Date: 30 March 2025
Orbit: 758 x 778 km, 74.0° (Epoch: 28 April)

Event Time Altitude Azimuth Distance (km) Brightness Sun altitude
Rises 22:36:47 0° 343° (NNW) 3,236 8.3 -33.4°
Reaches altitude 10° 22:40:16 10° 7° (N) 2,310 7.1 -33.7°
Maximum altitude 22:43:12 15° 41° (NE) 1,991 6.4 -33.8°
Enters shadow 22:43:25 15° 44° (NE) 1,993 6.3 -33.8°
